Content
SEND FEEDBACK

Daily
Averages
Monthly
Summary
United States of America

ST GERMAIN, WISCONSIN


Home > North America > United States > Wisconsin
Elevation: 1630 feet     Latitude: 45 54N     Longitude: 089 27W

WEATHER
 
SELECT A DAY
Number of Records: 341,425;   Date Range: 12/9/96 - 9/29/14
 
SHARE

PRINT THIS DATA

[ ← Previous Day ]
WEATHER ALMANAC - FEBRUARY 13, 2013
[ Next Day → ]
[ °C ]   °F
Weather ElementAverageHighLow
Temperature24.9 °F32 °F (12:55 pm)14 °F (1:55 am)
Dewpoint23.3 °F30.2 °F (5:35 pm)14 °F (1:55 am)
Humidity94.2 %100 % (12:35 am)75 % (1:15 pm)
Barometer29.60 in29.67 in (12:35 am)29.57 in (2:15 pm)
Wind Speed2.7 mph8.1 mph (2:15 pm)
Weather ElementAverage
Visibility7.8 mi
Wind DirectionSSE (141.7 °)

Weather ElementTotal
Precipitation0.39 in
Heating Degree Days42 (Base 65)
Averaged from 69 records on February 13, 2013
WEATHER CONDITIONS BREAKOUT
WIND DIRECTION BREAKOUT
WEATHER BY HOUR - FEBRUARY 13, 2013
[ °C ]   °F
Local TimeTemperatureDewpointHumidityBarometerVisibilityWind DirectionWind SpeedGust SpeedPrecipitationEventsConditions
12:35 AM17.6 °F17.6 °F100 %29.67 in7.0 miSSW (210°)3.5 mphClear
12:55 AM17.6 °F17.6 °F100 %29.67 in7.0 miWest (260°)3.5 mphClear
1:15 AM15.8 °F15.8 °F100 %29.67 in7.0 miCalmClear
1:35 AM17.6 °F17.6 °F100 %29.65 in7.0 miCalmScattered Clouds
1:55 AM14.0 °F14.0 °F100 %29.66 in7.0 miCalmScattered Clouds
2:15 AM17.6 °F14.0 °F86 %29.65 in7.0 miWSW (240°)3.5 mphScattered Clouds
2:35 AM14.0 °F14.0 °F100 %29.65 in4.0 miCalmScattered Clouds
2:55 AM15.8 °F15.8 °F100 %29.65 in4.0 miSW (220°)3.5 mphClear
3:15 AM14.0 °F14.0 °F100 %29.65 in4.0 miCalmMostly Cloudy
3:35 AM15.8 °F15.8 °F100 %29.64 in5.0 miCalmOvercast
3:55 AM17.6 °F17.6 °F100 %29.64 in7.0 miCalmOvercast
4:15 AM17.6 °F17.6 °F100 %29.64 in7.0 miCalmOvercast
4:35 AM17.6 °F17.6 °F100 %29.64 in7.0 miCalmOvercast
4:55 AM17.6 °F17.6 °F100 %29.63 in7.0 miCalmOvercast
5:15 AM19.4 °F19.4 °F100 %29.64 in7.0 miCalmOvercast
5:35 AM17.6 °F17.6 °F100 %29.63 in7.0 miCalmOvercast
5:55 AM19.4 °F19.4 °F100 %29.63 in7.0 miCalmOvercast
6:15 AM19.4 °F19.4 °F100 %29.63 in7.0 miCalmOvercast
6:35 AM17.6 °F17.6 °F100 %29.62 in5.0 miCalmOvercast
6:55 AM17.6 °F17.6 °F100 %29.62 in4.0 miCalmOvercast
7:15 AM17.6 °F14.0 °F86 %29.63 in5.0 miCalmOvercast
7:35 AM17.6 °F17.6 °F100 %29.62 in5.0 miCalmOvercast
7:55 AM19.4 °F19.4 °F100 %29.62 in5.0 miCalmOvercast
8:15 AM19.4 °F19.4 °F100 %29.62 in5.0 miCalmOvercast
8:35 AM19.4 °F19.4 °F100 %29.62 in4.0 miCalmOvercast
8:55 AM21.2 °F21.2 °F100 %29.62 in5.0 miSW (230°)4.6 mphOvercast
9:15 AM21.2 °F21.2 °F100 %29.61 in5.0 miSW (230°)5.8 mphOvercast
9:35 AM23.0 °F23.0 °F100 %29.61 in5.0 miSW (230°)5.8 mphOvercast
9:55 AM23.0 °F23.0 °F100 %29.61 in5.0 miWSW (240°)4.6 mphOvercast
10:15 AM23.0 °F23.0 °F100 %29.61 in7.0 miWSW (240°)3.5 mphOvercast
10:55 AM26.6 °F26.6 °F100 %29.60 in7.0 miSW (230°)3.5 mphOvercast
11:15 AM28.4 °F23.0 °F80 %29.60 in10.0 miWSW (240°)3.5 mphOvercast
11:35 AM28.4 °F23.0 °F80 %29.60 in10.0 miWSW (240°)3.5 mphOvercast
11:55 AM30.2 °F24.8 °F80 %29.59 in10.0 miSW (230°)3.5 mph0.01 inOvercast
12:15 PM30.2 °F24.8 °F80 %29.59 in10.0 miSW (230°)4.6 mph0.01 inOvercast
12:35 PM30.2 °F26.6 °F86 %29.59 in10.0 miWSW (240°)5.8 mph0.02 inOvercast
12:55 PM32.0 °F26.6 °F80 %29.58 in10.0 miWSW (240°)6.9 mph0.05 inOvercast
1:15 PM32.0 °F24.8 °F75 %29.58 in10.0 miSW (230°)5.8 mph0.02 inOvercast
1:35 PM32.0 °F24.8 °F75 %29.58 in10.0 miSW (230°)5.8 mph0.05 inOvercast
1:55 PM30.2 °F24.8 °F80 %29.58 in10.0 miWSW (240°)5.8 mph0.07 inMostly Cloudy
2:15 PM32.0 °F26.6 °F80 %29.57 in10.0 miSW (230°)8.1 mph0.02 inClear
2:35 PM32.0 °F26.6 °F80 %29.57 in10.0 miWSW (250°)8.1 mph0.04 inClear
2:55 PM32.0 °F26.6 °F80 %29.57 in10.0 miSW (230°)6.9 mph0.05 inClear
3:15 PM32.0 °F26.6 °F80 %29.57 in10.0 miSW (230°)4.6 mph0.01 inClear
3:35 PM32.0 °F26.6 °F80 %29.57 in10.0 miWSW (250°)5.8 mph0.02 inClear
3:55 PM32.0 °F26.6 °F80 %29.57 in10.0 miWSW (250°)4.6 mph0.02 inClear
4:15 PM32.0 °F26.6 °F80 %29.57 in10.0 miCalmClear
4:35 PM32.0 °F26.6 °F80 %29.57 in10.0 miSW (230°)3.5 mphClear
4:55 PM32.0 °F28.4 °F87 %29.57 in10.0 miWSW (240°)4.6 mphClear
5:15 PM30.2 °F26.6 °F86 %29.58 in10.0 miWSW (240°)4.6 mphClear
5:35 PM30.2 °F30.2 °F100 %29.58 in10.0 miCalmScattered Clouds
5:55 PM30.2 °F30.2 °F100 %29.58 in10.0 miCalmScattered Clouds
6:15 PM26.6 °F26.6 °F100 %29.58 in3.0 miCalmScattered Clouds
6:35 PM30.2 °F30.2 °F100 %29.58 in10.0 miSSW (210°)3.5 mphScattered Clouds
6:55 PM28.4 °F28.4 °F100 %29.58 in10.0 miSW (220°)3.5 mphMostly Cloudy
7:15 PM30.2 °F30.2 °F100 %29.59 in10.0 miWest (280°)4.6 mphMostly Cloudy
7:35 PM30.2 °F30.2 °F100 %29.59 in10.0 miWest (260°)3.5 mphMostly Cloudy
7:55 PM28.4 °F28.4 °F100 %29.59 in10.0 miWSW (240°)4.6 mphOvercast
8:15 PM28.4 °F28.4 °F100 %29.59 in10.0 miWSW (240°)4.6 mphOvercast
8:55 PM28.4 °F28.4 °F100 %29.58 in10.0 miCalmScattered Clouds
9:15 PM28.4 °F28.4 °F100 %29.58 in7.0 miCalmScattered Clouds
9:35 PM28.4 °F28.4 °F100 %29.58 in10.0 miWSW (250°)3.5 mphMostly Cloudy
9:55 PM28.4 °F28.4 °F100 %29.58 in10.0 miWSW (250°)4.6 mphOvercast
10:15 PM28.4 °F28.4 °F100 %29.57 in10.0 miWest (260°)3.5 mphOvercast
10:35 PM28.4 °F28.4 °F100 %29.57 in10.0 miWSW (240°)3.5 mphOvercast
10:55 PM30.2 °F30.2 °F100 %29.57 in10.0 miWSW (240°)4.6 mphOvercast
11:15 PM30.2 °F30.2 °F100 %29.57 in7.0 miWSW (240°)3.5 mphOvercast
11:35 PM30.2 °F30.2 °F100 %29.57 in7.0 miWSW (250°)3.5 mphSnowLight Snow
11:55 PM30.2 °F30.2 °F100 %29.57 in5.0 miCalmSnowLight Snow
Hourly data recorded from KEGV, located miles away from St Germain, Wisconsin







STORIES FROM OUR PARTNERS